Regional Weather Roundup
Issued by NWS Albany, NY

Current Version | Previous Version | Text Only | Print | Product List | Glossary On
Versions: 1 2 3 4 5 6 7 8 9 10 11 12 13 14 15 16 17 18 19 20 21 22 23 24 25 26 27 28 29 30 31 32 33 34 35 36 37 38 39 40 41 42 43 44 45 46 47 48 49 50
000
ASUS41 KALY 242210
RWRALY

NEW YORK STATE HOURLY WEATHER ROUNDUP
NATIONAL WEATHER SERVICE ALBANY NY
600 PM EDT SAT AUG 24 2019

NOTE: "FAIR" INDICATES FEW OR NO CLOUDS BELOW 12,000 FEET WITH NO
SIGNIFICANT WEATHER AND/OR NO OBSTRUCTIONS TO VISIBILITY.

NYZ032-033-038>043-046>054-057>066-NYZ062>081-082-084-242300-
EAST


CITY           SKY/WX    TMP DP  RH WIND       PRES   REMARKS
ALBANY         PTSUNNY   72  54  53 NE7       30.21S
GLENS FALLS    FAIR      70  53  54 NE13      30.23R
POUGHKEEPSIE   CLOUDY    73  53  49 N8        30.18R
MONTGOMERY     FAIR      72  52  49 NE9       30.19R
WHITE PLAINS   FAIR      73  50  44 VRB3      30.18R
ISLIP          FAIR      72  54  53 SE10      30.18R
NEW YORK CITY  PTSUNNY   74  48  39 NE5       30.17R
CENTRAL PARK   PTSUNNY   74  49  41 NE7       30.20R
$$

NYZ005>009-017-018-044>046-055-056-242300-
CENTRAL


CITY           SKY/WX    TMP DP  RH WIND       PRES   REMARKS
FULTON         CLOUDY    68  51  54 NW6       30.26R
SYRACUSE       FAIR      69  52  54 N5        30.25R
ROME           FAIR      71  54  54 NW3       30.23S
ELMIRA         CLOUDY    66  54  65 N8        30.24S
BINGHAMTON     CLOUDY    64  50  60 N8        30.25R
MONTICELLO     PTSUNNY   68  50  52 NE5       30.23R
$$

NYZ026>034-041>043-087-242300-
NORTH


CITY           SKY/WX    TMP DP  RH WIND       PRES   REMARKS
WATERTOWN      PTSUNNY   68  52  56 NE10      30.26R
FORT DRUM      NOT AVBL
OGDENSBURG     FAIR      70  55  60 NE5       30.24S
MASSENA        FAIR      72  54  53 NE8       30.28R
SARANAC LAKE   CLOUDY    62  52  69 NE9       30.28R
PLATTSBURGH    FAIR      69  53  56 N6        30.27R
$$

NYZ001>004-010>016-019>021-085-242300-
WEST


CITY           SKY/WX    TMP DP  RH WIND       PRES   REMARKS
NIAGARA FALLS  PTSUNNY   69  51  52 NE10      30.26S
BUFFALO        PTSUNNY   69  51  52 NE10      30.27R
DUNKIRK        CLOUDY    69  53  56 NE8       30.26S
JAMESTOWN      CLOUDY    64  51  62 NE10      30.28R
WELLSVILLE     CLOUDY    60  50  69 NE7       30.29R
ROCHESTER      CLOUDY    68  51  54 NE10      30.28R
PENN YAN       CLOUDY    64  52  64 CALM      30.28R
$$

             KEY
       WCI = WIND CHILL INDEX
       VSB = VISIBILITY
       HX  = HEAT INDEX
$$



USA.gov is the U.S. government's official web portal to all federal, state and local government web resources and services.